Weather in Nizhniye Abakasy

Russia / Chuvash Republic     55°24′29″N   47°05′02″E
temp.,
°C
wind,
m/s
gust,
m/s
humid.,
%
clouds,
%
prec.,
mm/h
press.,
hPa
HPBL,
m
19 april, mon
mon1900:00+4ene5116854 0.0 1025454
03:00+2ene61267100 0.0 1026397
06:00+2ene61263100 0.0 1026544
09:00+4e81153100 0.0 1027820
12:00+6e91140100 0.0 10271357
15:00+7e91141100 0.0 10271543
18:00+6e7124791 0.0 10271151
21:00+3e7144686 0.0 1028571
20 april, tue
tue2000:00+2e7154869 0.0 1028497
03:000e614585 0.0 1029382
06:00+1e614615 0.0 1029453
09:00+6ese912410 0.0 10291034
12:00+8ese911370 0.0 10281295
15:00+10ese810358 0.0 10271513
18:00+8ese71239100 0.0 1025705
21:00+6ese81540100 0.0 1024710
21 april, wed
wed2100:00+5se91842100 0.0 1022845
03:00+4se101948100 0.0 1020785
06:00+1se102188100 1.9 1019767
09:00+1se112191100 4.4 1018762
12:00+2se101989100 1.5 1017805
15:00+3sse101789100 1.5 1017793
18:00+3sse91691100 0.1 1018724
21:00+4sse71494100 0.1 1019504
22 april, thu
thu2200:00+4sse51195100 0.0 1020346
03:00+4sse4997100 0.0 1020284
06:00+4sse4897100 0.0 1021263
09:00+7s578780 0.0 1022508
12:00+10s5677100 0.0 1022883
15:00+10s3780100 0.1 1022473
18:00+9sse498225 0.1 1023303
21:00+6sse49945 0.1 1024181
23 april, fri
fri2300:00+5sse37945 0.0 1024120
03:00+5sse359438 0.0 102476
06:00+6sse389495 0.0 1024190
09:00+11sse457499 0.0 1024512
12:00+13sse4463100 0.3 1023833
15:00+14se555782 0.4 10221372
18:00+11se586890 0.1 1022394
21:00+7se4108420 0.1 1021238